• Em Portugal
  • Lista de países
  • Para 7 dias
  • Temperatura da água
  • Mapas de satélite
  • Mapa do tempo
  • Widgets de tempo
  • user-avatar
    Iniciar Sessão

    Previsão horária em Orange Walk

    Hoje, 20 Julho, Sexta-feira

    Tempo Temperatura Precipitação Vento Pressão Humidade
    00:00 +25°C° 0 mm 1 m/s 759 mmHg 96%
    01:00 +25°C° 0 mm 1 m/s 759 mmHg 96%
    02:00 +25°C° 0 mm 1 m/s 759 mmHg 97%
    03:00 +25°C° 0 mm 1 m/s 758 mmHg 98%
    04:00 +25°C° 0 mm 1 m/s 758 mmHg 97%
    05:00 +25°C° 0 mm 1 m/s 758 mmHg 97%
    06:00 +26°C° 0 mm 1 m/s 759 mmHg 94%
    07:00 +28°C° 0 mm 1 m/s 759 mmHg 84%
    08:00 +30°C° 0 mm 2 m/s 759 mmHg 74%
    09:00 +32°C° 0 mm 2 m/s 759 mmHg 64%
    10:00 +34°C° 0 mm 2 m/s 759 mmHg 57%
    11:00 +36°C° 0 mm 3 m/s 758 mmHg 51%
    12:00 +37°C° 0 mm 3 m/s 758 mmHg 44%
    13:00 +37°C° 0 mm 3 m/s 758 mmHg 44%
    14:00 +37°C° 0 mm 3 m/s 758 mmHg 45%
    15:00 +37°C° 0 mm 3 m/s 757 mmHg 45%
    16:00 +35°C° 0 mm 3 m/s 757 mmHg 52%
    17:00 +34°C° 0 mm 3 m/s 757 mmHg 59%
    18:00 +31°C° 0 mm 2 m/s 757 mmHg 65%
    19:00 +30°C° 0 mm 2 m/s 758 mmHg 73%
    20:00 +28°C° 0 mm 2 m/s 758 mmHg 81%
    21:00 +27°C° 0 mm 2 m/s 758 mmHg 89%
    22:00 +27°C° 0 mm 1 m/s 759 mmHg 91%
    23:00 +26°C° 0 mm 1 m/s 759 mmHg 93%

    Amanhã, 21 Julho, Sábado

    Tempo Temperatura Precipitação Vento Pressão Humidade
    00:00 +26°C° 0 mm 1 m/s 759 mmHg 95%
    01:00 +26°C° 0 mm 1 m/s 758 mmHg 96%
    02:00 +26°C° 0 mm 1 m/s 758 mmHg 96%
    03:00 +25°C° 0 mm 1 m/s 758 mmHg 97%
    04:00 +26°C° 0 mm 1 m/s 758 mmHg 97%
    05:00 +26°C° 0 mm 1 m/s 758 mmHg 96%
    06:00 +26°C° 0 mm 1 m/s 758 mmHg 96%
    07:00 +28°C° 0 mm 1 m/s 758 mmHg 85%
    08:00 +30°C° 0 mm 2 m/s 758 mmHg 74%
    09:00 +32°C° 0 mm 2 m/s 759 mmHg 62%
    10:00 +34°C° 0,2 mm 3 m/s 759 mmHg 58%
    11:00 +35°C° 0,2 mm 3 m/s 758 mmHg 54%
    12:00 +36°C° 0,2 mm 3 m/s 758 mmHg 50%
    13:00 +36°C° 0,5 mm 3 m/s 758 mmHg 53%
    14:00 +35°C° 0,5 mm 3 m/s 758 mmHg 56%
    15:00 +35°C° 0,5 mm 3 m/s 757 mmHg 59%
    16:00 +34°C° 0,1 mm 3 m/s 757 mmHg 63%
    17:00 +33°C° 0,1 mm 3 m/s 757 mmHg 67%
    18:00 +31°C° 0,1 mm 2 m/s 757 mmHg 72%
    19:00 +30°C° 0,1 mm 2 m/s 758 mmHg 78%
    20:00 +28°C° 0,1 mm 2 m/s 758 mmHg 84%
    21:00 +27°C° 0,1 mm 2 m/s 759 mmHg 90%
    22:00 +27°C° 0,1 mm 2 m/s 759 mmHg 92%
    23:00 +27°C° 0,1 mm 2 m/s 759 mmHg 94%

    Depois de amanhã, 22 Julho, Domingo

    Tempo Temperatura Precipitação Vento Pressão Humidade
    00:00 +26°C° 0,1 mm 1 m/s 759 mmHg 96%
    01:00 +26°C° 0,1 mm 1 m/s 759 mmHg 96%
    02:00 +26°C° 0,1 mm 1 m/s 758 mmHg 97%
    03:00 +26°C° 0,1 mm 1 m/s 758 mmHg 97%
    04:00 +26°C° 0,2 mm 1 m/s 758 mmHg 97%
    05:00 +26°C° 0,2 mm 1 m/s 758 mmHg 97%
    06:00 +26°C° 0,2 mm 1 m/s 758 mmHg 97%
    07:00 +28°C° 0,1 mm 2 m/s 759 mmHg 87%
    08:00 +30°C° 0,1 mm 2 m/s 759 mmHg 78%
    09:00 +33°C° 0,1 mm 3 m/s 759 mmHg 68%
    10:00 +35°C° 0 mm 3 m/s 759 mmHg 61%
    11:00 +36°C° 0 mm 3 m/s 759 mmHg 55%
    12:00 +37°C° 0 mm 3 m/s 759 mmHg 48%
    13:00 +37°C° 0 mm 3 m/s 758 mmHg 48%
    14:00 +37°C° 0 mm 3 m/s 758 mmHg 47%
    15:00 +37°C° 0 mm 3 m/s 757 mmHg 46%
    16:00 +36°C° 0 mm 3 m/s 757 mmHg 53%
    17:00 +34°C° 0 mm 3 m/s 758 mmHg 59%
    18:00 +32°C° 0 mm 2 m/s 758 mmHg 65%
    19:00 +30°C° 0 mm 2 m/s 758 mmHg 73%
    20:00 +28°C° 0 mm 2 m/s 758 mmHg 82%
    21:00 +27°C° 0 mm 1 m/s 759 mmHg 90%
    22:00 +27°C° 0 mm 1 m/s 759 mmHg 92%
    23:00 +26°C° 0 mm 1 m/s 759 mmHg 94%

    23 Julho, Segunda-feira

    Tempo Temperatura Precipitação Vento Pressão Humidade
    00:00 +26°C° 0 mm 1 m/s 759 mmHg 97%
    01:00 +26°C° 0 mm 1 m/s 759 mmHg 97%
    02:00 +26°C° 0 mm 1 m/s 758 mmHg 97%
    03:00 +26°C° 0 mm 1 m/s 758 mmHg 98%
    04:00 +26°C° 0 mm 1 m/s 758 mmHg 98%
    05:00 +26°C° 0 mm 1 m/s 758 mmHg 98%
    06:00 +24°C° 0 mm 0 m/s 758 mmHg 98%
    07:00 +28°C° 0 mm 1 m/s 758 mmHg 85%
    08:00 +31°C° 0 mm 1 m/s 759 mmHg 73%
    09:00 +34°C° 0 mm 2 m/s 759 mmHg 61%
    10:00 +35°C° 0 mm 2 m/s 759 mmHg 55%
    11:00 +36°C° 0 mm 2 m/s 758 mmHg 49%
    12:00 +38°C° 0 mm 3 m/s 758 mmHg 43%
    13:00 +38°C° 0 mm 3 m/s 758 mmHg 42%
    14:00 +38°C° 0 mm 3 m/s 757 mmHg 41%
    15:00 +38°C° 0 mm 3 m/s 757 mmHg 40%
    16:00 +36°C° 0 mm 3 m/s 757 mmHg 47%
    17:00 +34°C° 0 mm 2 m/s 757 mmHg 55%
    18:00 +32°C° 0 mm 2 m/s 757 mmHg 62%
    19:00 +30°C° 0 mm 2 m/s 757 mmHg 70%
    20:00 +28°C° 0 mm 2 m/s 758 mmHg 79%
    21:00 +27°C° 0 mm 2 m/s 758 mmHg 88%
    22:00 +26°C° 0 mm 2 m/s 758 mmHg 90%
    23:00 +26°C° 0 mm 2 m/s 758 mmHg 93%

    24 Julho, Terça-feira

    Tempo Temperatura Precipitação Vento Pressão Humidade
    00:00 +26°C° 0 mm 2 m/s 758 mmHg 95%
    01:00 +25°C° 0 mm 1 m/s 758 mmHg 96%
    02:00 +25°C° 0 mm 1 m/s 757 mmHg 97%
    03:00 +25°C° 0 mm 1 m/s 757 mmHg 98%
    04:00 +25°C° 0 mm 1 m/s 757 mmHg 97%
    05:00 +26°C° 0 mm 1 m/s 758 mmHg 96%
    06:00 +24°C° 0 mm 0 m/s 758 mmHg 95%
    07:00 +28°C° 0 mm 1 m/s 758 mmHg 85%
    08:00 +30°C° 0 mm 2 m/s 759 mmHg 75%
    09:00 +34°C° 0 mm 2 m/s 759 mmHg 64%
    10:00 +35°C° 0 mm 2 m/s 759 mmHg 58%
    11:00 +37°C° 0 mm 2 m/s 758 mmHg 51%
    12:00 +38°C° 0 mm 3 m/s 758 mmHg 44%
    13:00 +38°C° 0 mm 3 m/s 757 mmHg 43%
    14:00 +38°C° 0 mm 3 m/s 757 mmHg 43%
    15:00 +38°C° 0 mm 3 m/s 756 mmHg 42%
    16:00 +36°C° 0 mm 3 m/s 756 mmHg 50%
    17:00 +34°C° 0 mm 3 m/s 757 mmHg 57%
    18:00 +32°C° 0 mm 2 m/s 757 mmHg 64%
    19:00 +30°C° 0 mm 2 m/s 757 mmHg 73%
    20:00 +29°C° 0 mm 2 m/s 758 mmHg 82%
    21:00 +27°C° 0 mm 2 m/s 758 mmHg 91%
    22:00 +27°C° 0 mm 2 m/s 758 mmHg 93%
    23:00 +26°C° 0 mm 2 m/s 758 mmHg 95%

    25 Julho, Quarta-feira

    Tempo Temperatura Precipitação Vento Pressão Humidade
    00:00 +26°C° 0 mm 1 m/s 758 mmHg 98%
    01:00 +26°C° 0 mm 1 m/s 758 mmHg 97%
    02:00 +26°C° 0 mm 1 m/s 758 mmHg 97%
    03:00 +26°C° 0 mm 1 m/s 758 mmHg 97%
    04:00 +26°C° 0,1 mm 1 m/s 758 mmHg 97%
    05:00 +26°C° 0,1 mm 1 m/s 758 mmHg 97%
    06:00 +26°C° 0,1 mm 1 m/s 758 mmHg 97%
    07:00 +28°C° 0 mm 1 m/s 758 mmHg 86%
    08:00 +31°C° 0 mm 2 m/s 759 mmHg 74%
    09:00 +34°C° 0 mm 2 m/s 759 mmHg 63%
    10:00 +35°C° 0 mm 3 m/s 759 mmHg 58%
    11:00 +36°C° 0 mm 3 m/s 758 mmHg 52%
    12:00 +38°C° 0 mm 3 m/s 758 mmHg 47%
    13:00 +37°C° 0 mm 3 m/s 757 mmHg 47%
    14:00 +37°C° 0 mm 3 m/s 757 mmHg 47%
    15:00 +37°C° 0 mm 4 m/s 756 mmHg 47%
    16:00 +36°C° 0 mm 3 m/s 757 mmHg 54%
    17:00 +34°C° 0 mm 3 m/s 757 mmHg 62%
    18:00 +31°C° 0 mm 3 m/s 757 mmHg 69%
    19:00 +30°C° 0 mm 3 m/s 758 mmHg 76%
    20:00 +29°C° 0 mm 2 m/s 758 mmHg 83%
    21:00 +27°C° 0 mm 2 m/s 758 mmHg 90%
    22:00 +27°C° 0 mm 2 m/s 758 mmHg 91%
    23:00 +27°C° 0 mm 2 m/s 758 mmHg 92%
    Mostrar mais